Location: Coupvray
(48.8929°N, 2.7967°E)
Time: 10:56:55
(UTC+00:00)

Cosmos 841 Rocket - Pass Details

Date: 14 July 2020
Orbit: 747 x 772 km, 74.0° (Epoch: 05 August)

Event Time Altitude Azimuth Distance (km) Brightness Sun altitude
Rises 02:49:09 0° 338° (NNW) 3,209 7.1 -9.5°
Reaches altitude 10° 02:51:33 10° 342° (NNW) 2,283 6.4 -9.2°
Maximum altitude 02:56:40 61° 63° (ENE) 856 4.1 -8.7°
Drops below altitude 10° 03:01:47 10° 144° (SE) 2,281 5.9 -8.1°
Sets 03:04:11 0° 148° (SSE) 3,206 6.6 -7.8°
